EN

Hourly Weather Dzierzki

Today, 26 October, Monday

Time Temperature Precipitation Wind Pressure Humidity
00:00 +9°C° 0 mm 3 mps 747 mmHg 92%
01:00 +9°C° 0 mm 3 mps 747 mmHg 92%
02:00 +9°C° 0 mm 3 mps 747 mmHg 91%
03:00 +8°C° 0 mm 4 mps 746 mmHg 91%
04:00 +8°C° 0 mm 4 mps 746 mmHg 90%
05:00 +8°C° 0 mm 4 mps 746 mmHg 92%
06:00 +8°C° 0 mm 4 mps 745 mmHg 93%
07:00 +8°C° 0 mm 4 mps 745 mmHg 95%
08:00 +10°C° 0 mm 4 mps 745 mmHg 93%
09:00 +11°C° 0 mm 4 mps 745 mmHg 91%
10:00 +12°C° 0 mm 4 mps 745 mmHg 90%
11:00 +12°C° 0 mm 4 mps 745 mmHg 88%
12:00 +13°C° 0 mm 4 mps 744 mmHg 86%
13:00 +13°C° 0 mm 4 mps 744 mmHg 83%
14:00 +13°C° 0 mm 4 mps 744 mmHg 85%
15:00 +13°C° 0 mm 3 mps 744 mmHg 87%
16:00 +12°C° 0 mm 3 mps 743 mmHg 89%
17:00 +13°C° 0.1 mm 3 mps 744 mmHg 88%
18:00 +13°C° 0.1 mm 3 mps 744 mmHg 87%
19:00 +13°C° 0.1 mm 3 mps 744 mmHg 86%
20:00 +13°C° 0.1 mm 3 mps 744 mmHg 86%
21:00 +13°C° 0.1 mm 4 mps 744 mmHg 86%
22:00 +13°C° 0.1 mm 4 mps 744 mmHg 85%
23:00 +12°C° 0 mm 4 mps 744 mmHg 86%

Tomorrow, 27 October, Tuesday

Time Temperature Precipitation Wind Pressure Humidity
00:00 +12°C° 0 mm 3 mps 744 mmHg 87%
01:00 +12°C° 0 mm 3 mps 744 mmHg 88%
02:00 +12°C° 0 mm 3 mps 744 mmHg 90%
03:00 +11°C° 0 mm 3 mps 744 mmHg 91%
04:00 +11°C° 0 mm 3 mps 744 mmHg 92%
05:00 +11°C° 0 mm 3 mps 744 mmHg 93%
06:00 +10°C° 0 mm 2 mps 744 mmHg 94%
07:00 +10°C° 0 mm 2 mps 744 mmHg 94%
08:00 +12°C° 0 mm 2 mps 745 mmHg 92%
09:00 +12°C° 0 mm 2 mps 745 mmHg 90%
10:00 +13°C° 0 mm 2 mps 745 mmHg 88%
11:00 +14°C° 0 mm 2 mps 745 mmHg 83%
12:00 +14°C° 0 mm 3 mps 745 mmHg 78%
13:00 +17°C° 0 mm 3 mps 745 mmHg 73%
14:00 +16°C° 0 mm 3 mps 745 mmHg 75%
15:00 +14°C° 0 mm 3 mps 745 mmHg 77%
16:00 +14°C° 0 mm 3 mps 745 mmHg 79%
17:00 +14°C° 0.1 mm 3 mps 745 mmHg 80%
18:00 +14°C° 0.1 mm 4 mps 745 mmHg 81%
19:00 +14°C° 0.1 mm 4 mps 745 mmHg 82%
20:00 +13°C° 0.1 mm 4 mps 745 mmHg 84%
21:00 +13°C° 0.1 mm 3 mps 745 mmHg 86%
22:00 +12°C° 0.1 mm 3 mps 746 mmHg 88%
23:00 +12°C° 0.3 mm 3 mps 746 mmHg 90%

Day after tomorrow, 28 October, Wednesday

Time Temperature Precipitation Wind Pressure Humidity
00:00 +12°C° 0.3 mm 3 mps 746 mmHg 91%
01:00 +12°C° 0.3 mm 2 mps 747 mmHg 93%
02:00 +10°C° 0 mm 2 mps 747 mmHg 94%
03:00 +10°C° 0 mm 2 mps 747 mmHg 95%
04:00 +9°C° 0 mm 2 mps 747 mmHg 96%
05:00 +10°C° 0 mm 1 mps 747 mmHg 96%
06:00 +9°C° 0 mm 1 mps 748 mmHg 96%
07:00 +9°C° 0 mm 1 mps 748 mmHg 96%
08:00 +10°C° 0 mm 1 mps 748 mmHg 90%
09:00 +11°C° 0 mm 1 mps 748 mmHg 84%
10:00 +12°C° 0 mm 2 mps 749 mmHg 78%
11:00 +13°C° 0 mm 2 mps 749 mmHg 75%
12:00 +14°C° 0 mm 2 mps 748 mmHg 72%
13:00 +13°C° 0 mm 3 mps 748 mmHg 70%
14:00 +12°C° 0 mm 3 mps 748 mmHg 74%
15:00 +13°C° 0 mm 2 mps 748 mmHg 78%
16:00 +12°C° 0 mm 2 mps 748 mmHg 82%
17:00 +10°C° 0 mm 2 mps 748 mmHg 85%
18:00 +10°C° 0 mm 2 mps 748 mmHg 87%
19:00 +9°C° 0 mm 2 mps 748 mmHg 90%
20:00 +9°C° 0 mm 3 mps 748 mmHg 91%
21:00 +9°C° 0 mm 3 mps 748 mmHg 91%
22:00 +9°C° 0 mm 3 mps 748 mmHg 91%
23:00 +9°C° 0 mm 3 mps 748 mmHg 92%

29 October, Thursday

Time Temperature Precipitation Wind Pressure Humidity
00:00 +9°C° 0 mm 3 mps 748 mmHg 92%
01:00 +9°C° 0 mm 3 mps 748 mmHg 92%
02:00 +9°C° 0 mm 3 mps 748 mmHg 92%
03:00 +8°C° 0 mm 2 mps 748 mmHg 92%
04:00 +8°C° 0 mm 2 mps 747 mmHg 92%
05:00 +8°C° 0 mm 2 mps 748 mmHg 90%
06:00 +8°C° 0 mm 3 mps 748 mmHg 88%
07:00 +8°C° 0 mm 3 mps 748 mmHg 87%
08:00 +9°C° 0 mm 3 mps 748 mmHg 81%
09:00 +10°C° 0 mm 4 mps 748 mmHg 76%
10:00 +11°C° 0 mm 4 mps 748 mmHg 71%
11:00 +12°C° 0 mm 4 mps 748 mmHg 69%
12:00 +13°C° 0 mm 5 mps 748 mmHg 67%
13:00 +13°C° 0 mm 5 mps 748 mmHg 66%
14:00 +12°C° 0 mm 4 mps 748 mmHg 69%
15:00 +12°C° 0 mm 4 mps 748 mmHg 71%
16:00 +11°C° 0 mm 3 mps 749 mmHg 74%
17:00 +10°C° 0 mm 3 mps 749 mmHg 78%
18:00 +10°C° 0 mm 3 mps 749 mmHg 81%
19:00 +9°C° 0 mm 3 mps 750 mmHg 84%
20:00 +8°C° 0 mm 3 mps 750 mmHg 85%
21:00 +8°C° 0 mm 3 mps 750 mmHg 87%
22:00 +7°C° 0 mm 2 mps 751 mmHg 88%
23:00 +7°C° 0 mm 3 mps 751 mmHg 88%

30 October, Friday

Time Temperature Precipitation Wind Pressure Humidity
00:00 +7°C° 0 mm 3 mps 751 mmHg 88%
01:00 +7°C° 0 mm 3 mps 751 mmHg 88%
02:00 +7°C° 0 mm 3 mps 751 mmHg 88%
03:00 +7°C° 0 mm 3 mps 751 mmHg 88%
04:00 +7°C° 0 mm 3 mps 750 mmHg 88%
05:00 +6°C° 0 mm 4 mps 750 mmHg 86%
06:00 +7°C° 0 mm 4 mps 750 mmHg 84%
07:00 +7°C° 0 mm 4 mps 750 mmHg 83%
08:00 +8°C° 0 mm 5 mps 750 mmHg 82%
09:00 +8°C° 0 mm 5 mps 750 mmHg 81%
10:00 +9°C° 0 mm 6 mps 751 mmHg 80%
11:00 +9°C° 0 mm 5 mps 751 mmHg 81%
12:00 +9°C° 0 mm 5 mps 751 mmHg 82%
13:00 +10°C° 0 mm 5 mps 751 mmHg 83%
14:00 +11°C° 0 mm 4 mps 751 mmHg 83%
15:00 +11°C° 0 mm 4 mps 751 mmHg 84%
16:00 +11°C° 0 mm 4 mps 751 mmHg 84%
17:00 +11°C° 0 mm 4 mps 751 mmHg 84%
18:00 +12°C° 0 mm 4 mps 751 mmHg 85%
19:00 +12°C° 0 mm 4 mps 751 mmHg 85%
20:00 +12°C° 0 mm 4 mps 751 mmHg 85%
21:00 +12°C° 0 mm 4 mps 751 mmHg 85%
22:00 +11°C° 0 mm 4 mps 751 mmHg 85%
23:00 +11°C° 0 mm 4 mps 752 mmHg 86%

31 October, Saturday

Time Temperature Precipitation Wind Pressure Humidity
00:00 +11°C° 0 mm 3 mps 752 mmHg 88%
01:00 +11°C° 0 mm 3 mps 752 mmHg 89%
02:00 +10°C° 0 mm 3 mps 752 mmHg 90%
03:00 +10°C° 0 mm 3 mps 752 mmHg 92%
04:00 +9°C° 0 mm 3 mps 752 mmHg 94%
05:00 +9°C° 0 mm 3 mps 752 mmHg 94%
06:00 +9°C° 0 mm 2 mps 752 mmHg 94%
07:00 +8°C° 0 mm 2 mps 752 mmHg 95%
Show more